Location: Unspecified
(0.0000°N, 0.0000°E)
Time: 12:59:48
(UTC+00:00)

N. Korean satellite - Pass Details

Date: 12 June 2021
Orbit: 450 x 500 km, 97.2° (Epoch: 18 June)

Event Time Altitude Azimuth Distance (km) Brightness Sun altitude
Rises 05:11:50 0° 1° (N) 2,533 10.6 -11.0°
Reaches altitude 10° 05:13:56 10° 355° (N) 1,664 9.5 -10.6°
Maximum altitude 05:17:22 46° 281° (W) 667 6.9 -9.8°
Drops below altitude 10° 05:20:53 10° 207° (SSW) 1,693 8.9 -9.0°
Enters shadow 05:22:20 - 202° (SSW) 2,287 9.6 -8.6°
